Location: Natural Bridges National Monument
(37.6093°N, 109.9767°W)
Time: 20:37:46
(UTC-06:00)

USA 32 - Visible Passes

Search period start: 25 June 2016 00:00
Search period end: 05 July 2016 00:00
Orbit: 777 x 783 km, 85.0° (Epoch: 05 June)

Date Brightness Start Highest point End Pass type
(mag) Time Alt. Az. Time Alt. Az. Time Alt. Az.
25 Jun 5.5 00:13:54 10° NNW 00:18:18 27° W 00:19:30 25° WSW visible
25 Jun 5.7 22:01:06 10° NE 22:04:29 17° ENE 22:06:29 14° E visible
25 Jun 4.6 23:40:39 10° NNW 23:45:43 50° W 23:47:02 40° SW visible
26 Jun 3.9 23:07:44 10° N 23:13:02 89° E 23:14:35 48° S visible
27 Jun 4.4 22:35:08 10° N 22:40:13 48° E 22:42:08 33° SE visible
28 Jun 6.2 00:17:22 10° NW 00:20:42 17° W 00:22:40 14° WSW visible
28 Jun 5.2 22:02:52 10° NNE 22:07:18 27° ENE 22:09:42 19° ESE visible
28 Jun 5.5 23:43:38 10° NNW 23:48:12 31° W 23:50:14 23° SW visible
29 Jun 5.8 21:31:16 10° NE 21:34:16 15° ENE 21:37:14 10° ESE visible
29 Jun 4.5 23:10:27 10° NNW 23:15:36 56° W 23:17:50 32° SSW visible
30 Jun 4.0 22:37:36 10° N 22:42:53 79° E 22:45:26 31° S visible
01 Jul 6.7 00:22:41 10° WNW 00:23:01 10° WNW 00:23:21 10° W visible
01 Jul 4.5 22:05:03 10° N 22:10:03 43° E 22:13:03 22° SE visible
01 Jul 6.2 23:46:58 10° NW 23:50:37 19° W 23:53:36 12° WSW visible
02 Jul 5.3 21:32:53 10° NNE 21:37:07 24° ENE 21:40:41 13° SE visible
02 Jul 5.4 23:13:22 10° NNW 23:18:06 34° W 23:21:14 18° SW visible
03 Jul 4.4 22:40:16 10° N 22:45:28 64° W 22:48:53 21° SSW visible
04 Jul 4.0 22:07:28 10° N 22:12:44 71° E 22:16:34 19° SSE visible
04 Jul 6.7 23:51:13 10° WNW 23:52:57 12° W 23:54:41 10° W visible
